STARLINK-1350, 45535

Orbit data source: Space-Track

STARLINK-1350, 45535 is a payload satellite owned by SpaceX/Seattle (US) in LEO that was launched on Wed, 22 Apr 2020 UTC via an FALCON 9 launch vehicle from the Air Force Eastern Test Range (AFETR). Payload-class satellites include a variety of spacecraft equipped with specific instruments for various scientific and technological missions. These include communications satellites like Starlink; space stations such as the ISS; scientific satellites like the Hubble; Earth observation satellites from companies like Planet Labs, Umbra, and HawkEye 360; GPS; miniature CubeSats for education and research; and military/defense satellites.

Loading next visibility...
Identifier
45535, 2020-025E
Orbit
LEO
Country
Flag of USUS
Related business
Manufacturer
SpaceX/Seattle
Mission
Partially operational Commercial Communications
Bus & Motor
STARLINK, Unknown motor
Mass
260 kg wet, ~248 kg dry
Launch date (UTC)
2020-04-22 (5 years ago)
Launch vehicle
FALCON 9
Launch site
Air Force Eastern Test Range (AFETR)
Object type
Payload
Rocket body
Debris
Shape & HBR
Box + 1 Pan, 10.1 m
Radar Cross Section
13.562 m², Large (>1 m²)

Expand to show TLE details & history
Last TLE update: 21 hours ago

TLE from 21 hours ago
0 STARLINK-1350
1 45535U 20025E   25287.45795078  .00012938  00000-0  42764-3 0  9999
2 45535  53.0761 357.6828 0000842  80.0557 280.0539 15.31720827303711
Epoch: 2025-10-14T10:59Z
TLE epoch observation values (Epoch: 2025-10-14T10:59:26.947Z)
Latitude
0.00004°
Longitude
169.57445°
Altitude
471.469 km
Speed
7.632 km/s
True Right ascension
23h 50m 43s
True Declination
0° 00' 00"
Sunlit
Object was in full shadow at epoch
Visualization orbit readout
Latitude
Unknown
Longitude
Unknown
Altitude
Unknown
Speed
Unknown
Apparent Right ascension
Unknown
Apparent Declination
Unknown
Sunlit
N/A
Visualization observer readout
Local Sidereal Time
02:14:52
Azimuth
Unknown
Elevation
Unknown
Doppler factor
Unknown
Orbital elements
Apogee altitude
471.525 km
Perigee altitude
470.371 km
Semi-major axis
6,849.085 km
Eccentricity
0.00008
Inclination
53.0761°
RAAN
357.6828°
Arg. of periapsis
80.0557°
True anomaly
280.0444°
Mean anomaly
280.0539°
Eccentric anomaly
280.04915°
Mean motion
3.82908 °/min
Orbital period
94.02 mins
BSTAR
0.00042764
Loading maneuver chart data...
Computing Atmospheric mass density...

Documentation

Showing up to 5 results
|